Location: Huntsville
(34.7300°N, 86.5860°W)
Time: 20:46:39
(UTC-05:00)

Daily predictions for brighter satellites

Satellite Brightness Start Highest point End
(mag) Time Altitude Azimuth Time Altitude Azimuth Time Altitude Azimuth
Cosmos 1605 Rocket 4.1 20:21:45 10° N 20:28:01 65° E 20:34:18 10° SSE
In-Cosmos 22 4.4 20:23:28 10° S 20:29:02 60° E 20:34:43 10° NNE
CZ-2D R/B 3.8 20:31:23 10° S 20:35:08 61° W 20:38:58 10° NNW
USA 234 4.1 20:31:17 10° ENE 20:36:26 25° ESE 20:41:34 10° S
Cosmos 1242 Rocket 4.4 20:34:24 10° NNE 20:36:55 17° ENE 20:39:26 10° ESE
SL-16 R/B 2.6 20:33:43 10° N 20:39:13 50° ENE 20:44:41 10° SE
Cosmos 1867 3.5 20:36:21 10° SSW 20:41:45 78° ESE 20:47:13 10° NNE
Meteor 1-24 Rocket 4.1 20:37:06 10° SSW 20:43:01 73° W 20:48:46 10° N
Cosmos 1850 Rocket 3.9 20:38:31 10° SSW 20:43:40 80° ESE 20:48:52 10° NNE
Cosmos 1727 Rocket 4.1 20:39:20 10° S 20:45:39 87° E 20:52:02 10° N
ERS-1 Rocket 4.2 20:42:02 10° ESE 20:46:08 26° ENE 20:50:14 10° NNE
Cosmos 2221 3.1 20:43:35 10° N 20:47:44 40° E 20:51:52 10° SSE
Cosmos 1184 Rocket 3.4 20:44:48 10° SSW 20:48:07 63° W 20:51:28 10° N
Cosmos 2219 Rocket 4.2 20:45:49 10° NW 20:50:25 26° WSW 20:54:59 10° SSW
ATLAS 2A CENTAUR R/B 4.5 20:44:58 10° WSW 20:52:44 59° S 21:24:45 10° ESE
Spot 1 4.2 20:50:14 10° SSE 20:54:12 54° ENE 20:58:19 10° N
Atlas Centaur 2 2.1 20:51:26 10° WSW 20:54:50 30° SSW 20:57:20 14° SE
Tiangong 1 3.7 20:54:04 10° NW 20:55:55 16° N 20:57:44 10° NE
Cosmos 2333 Rocket 4.2 21:00:18 10° NW 21:04:43 24° WSW 21:09:07 10° SSW
NOSS 3-4 (A) 4.2 20:57:39 10° NW 21:04:45 66° WSW 21:12:17 10° SSE
NOSS 3-4 (C) 4.2 20:57:44 10° NW 21:04:51 67° WSW 21:12:23 10° SSE
Abrixas 2.8 21:03:23 10° SSW 21:05:52 34° SE 21:08:23 10° ENE
Okean 3 Rocket 3.6 21:02:07 10° S 21:06:37 88° WNW 21:11:06 10° N
CZ-4B DEB 2.5 21:04:55 16° SSE 21:07:11 67° ENE 21:10:08 10° N
H-2A R/B 3.8 21:07:55 12° ESE 21:10:53 19° ENE 21:14:30 10° NNE
SJ-11-01 4.5 21:07:54 10° S 21:12:38 75° WSW 21:17:24 10° NNW
Cosmos 2227 4.2 21:06:59 10° S 21:12:40 69° ESE 21:18:21 10° NNE
Cosmos 1766 Rocket 3.7 21:11:25 12° SSE 21:15:18 51° E 21:19:31 10° NNE
Helios 1B rocket 3.1 21:11:35 10° N 21:15:39 57° WNW 21:19:42 10° SSW
YAOGAN 6 2.6 21:15:27 15° SSE 21:18:23 88° WSW 21:22:05 10° NNW
Cosmos 1818 3.6 21:14:54 10° NNW 21:20:22 84° WSW 21:24:23 18° SSE
Helios 1A 3.7 21:21:38 10° S 21:25:39 49° W 21:29:41 10° NNW
USA 245 4.3 21:28:04 24° E 21:29:07 28° ENE 21:32:38 10° N
Cosmos 1726 2.9 21:27:10 10° NNE 21:30:31 33° E 21:31:24 29° ESE
Delta 2 Rocket 4.0 21:24:56 10° WSW 21:30:32 70° SSE 21:36:20 10° E
Cosmos 1743 Rocket 4.3 21:29:55 26° SE 21:31:17 32° E 21:35:09 10° NNE
Cosmos 2263 Rocket 2.9 21:29:12 22° SE 21:31:38 31° ESE 21:36:29 10° NE
GPS 2-05 Rocket1 2.4 21:30:44 10° WSW 21:33:47 66° SSE 21:34:46 38° E
ATLAS 5 CENTAUR R/B 4.5 21:30:31 10° W 21:34:11 22° NW 21:38:06 10° N
SPOT 5 3.4 21:35:37 26° SE 21:37:53 44° ENE 21:42:40 10° N
Cosmos 1356 Rocket 4.4 21:34:06 10° SSW 21:38:12 49° W 21:42:22 10° N
Cosmos 1300 3.5 21:36:46 10° NNE 21:40:17 34° E 21:40:57 31° ESE
Lacrosse 5 2.5 21:35:46 10° NNW 21:40:39 46° NE 21:43:10 26° ESE
Cosmos 2228 Rocket 3.9 21:39:10 10° NNE 21:43:25 37° E 21:44:39 31° ESE
SL-14 R/B 3.3 21:44:49 37° SSE 21:46:07 57° E 21:50:00 10° NNE
Abrixas rocket 4.4 21:44:07 10° NNW 21:46:32 19° NNE 21:47:59 15° ENE
Cosmos 2058 4.1 21:47:51 25° E 21:47:51 25° E 21:51:15 10° NE
Cosmos 1459 Rocket 4.2 21:44:46 10° NNW 21:51:00 69° W 21:55:57 16° S
Cosmos 1486 Rocket 4.0 21:47:46 21° S 21:51:17 64° ESE 21:56:32 10° NNE
Cosmos 220 Rocket 4.0 21:48:08 15° SSW 21:51:48 89° WNW 21:56:13 10° NNE
EO 1 Delta rocket 4.2 21:51:24 35° SE 21:52:56 48° ENE 21:57:22 10° N
Cosmos 1763 Rocket 4.1 21:49:40 10° N 21:54:27 40° ENE 21:55:57 32° ESE
RESURS DK-1 2.3 21:50:30 10° NNW 21:54:40 71° ENE 21:55:44 47° SE
SL-08 RB Rocket 3.8 21:53:52 39° SE 21:55:22 59° ENE 21:59:54 10° N
Cosmos 1328 3.7 21:56:12 41° S 21:57:33 81° E 22:01:36 10° N
H-2A ROCKET BODY 2.8 21:54:51 10° SW 21:58:13 36° SSE 22:08:56 10° E
OAO 1 Rocket 4.4 21:58:04 10° W 22:03:28 87° N 22:06:17 29° E
MetOp-A 4.3 22:00:44 26° S 22:03:44 68° WSW 22:09:04 10° NNW
Meteor 2-2 Rocket 4.2 21:59:19 10° N 22:05:09 84° E 22:07:51 34° SSE
Cosmos 2123 Rocket 4.0 22:01:03 19° S 22:05:42 84° W 22:11:56 10° N
SPOT 1/Viking Rocket 3.6 22:04:06 40° SE 22:05:46 62° ENE 22:10:52 10° N
Cosmos 1603 3.6 22:01:06 10° NNW 22:06:46 85° WSW 22:09:01 38° SSE
Milstar 3 Cent rocket 4.2 21:59:52 10° W 22:07:00 40° SSW 22:12:41 28° SSE
Terra 2.9 22:07:16 27° E 22:07:56 28° ENE 22:11:59 10° NNE
ARGOS 3.1 22:05:26 33° S 22:07:57 82° WSW 22:13:24 10° NNW
Cosmos 1455 4.2 22:10:36 10° NNE 22:12:26 17° ENE 22:12:26 17° ENE
Cosmos 332 Rocket 3.8 22:11:26 10° NNW 22:16:20 75° WSW 22:17:41 47° S
USA 234 3.4 22:13:12 10° NE 22:19:44 74° NW 22:26:14 10° SW
Cosmos 2151 2.8 22:19:26 70° SE 22:19:48 77° E 22:24:07 10° N
Cosmos 1943 3.3 22:15:12 10° NNW 22:20:48 60° ENE 22:22:12 46° ESE
SL-16 R/B 4.3 22:19:05 10° WNW 22:22:51 18° W 22:26:36 10° SW
ERS-1 Rocket 4.4 22:21:49 18° SSW 22:24:44 30° W 22:29:10 10° NW
Tiangong 1 3.4 22:29:50 10° NW 22:31:32 20° N 22:31:32 20° N
Cosmos 1725 Rocket 4.2 22:26:14 10° NNW 22:32:24 65° W 22:35:04 35° SSW
Cosmos 1500 Rocket 4.1 22:34:23 43° SW 22:35:31 56° W 22:39:54 10° N
Cosmos 1503 Rocket 3.8 22:36:35 59° S 22:37:36 87° ESE 22:42:47 10° NNE
Sakura Rocket 4.3 22:31:50 10° W 22:39:17 46° SSW 22:39:33 45° S
SL-19 R/B 4.2 22:35:15 10° NNE 22:40:38 65° ESE 22:41:12 61° SE
CARTOSAT-1 3.7 22:46:25 69° NNE 22:46:25 69° NNE 22:50:20 10° N
Cosmos 1703 3.8 22:48:31 59° NW 22:48:31 59° NW 22:52:02 10° N
H-2A R/B 2.7 22:48:33 41° SW 22:49:49 50° W 22:55:04 10° NNW
Cosmos 540 Rocket 3.9 22:45:57 10° N 22:50:56 49° ENE 22:50:56 49° ENE
CZ-4B R/B 4.0 22:46:06 10° NNE 22:50:35 48° ENE 22:50:35 48° ENE
Cosmos 1805 Rocket 4.2 22:55:56 46° NE 22:55:56 46° NE 22:59:08 10° NNE
IGS 5A 3.8 22:55:39 62° NNW 22:55:39 62° NNW 22:59:09 10° NNW
Cosmos 1626 3.4 22:58:40 38° NW 22:58:40 38° NW 23:01:37 10° N
Cosmos 1464 Rocket 4.2 22:52:05 10° N 22:58:05 51° E 22:58:32 50° E
CZ-4C R/B 2.5 22:59:53 48° ENE 22:59:53 48° ENE 23:04:17 10° NE
Cosmos 1151 Rocket 4.0 22:59:26 10° NNW 23:03:28 40° W 23:03:28 40° W
H-2A R/B 2.6 23:07:51 57° NNW 23:07:51 57° NNW 23:11:17 10° NNW
Delta 2 Rocket 4.1 23:07:42 10° W 23:13:32 81° N 23:13:58 75° NE
Cosmos 2263 Rocket 3.8 23:10:48 11° WSW 23:15:28 30° WNW 23:20:20 10° N
Lacrosse 5 3.6 23:19:23 10° WNW 23:22:21 22° WSW 23:22:21 22° WSW
Tsikada Rocket 4.1 23:28:53 60° E 23:28:53 60° E 23:34:56 10° NNE
CZ-2C R/B 4.3 23:28:54 34° ENE 23:28:54 34° ENE 23:33:54 10° N
COSMOS 2406 4.0 23:28:20 10° N 23:33:34 41° ENE 23:33:34 41° ENE
Terra 3.6 23:46:10 24° W 23:46:10 24° W 23:49:28 10° NW
Cosmos 1844 Rocket 2.9 23:49:03 67° N 23:49:03 67° N 23:53:56 10° NNE
